Location: ????????
(55.8351°N, 38.7040°E)
Time: 14:39:35
(UTC+00:00)

IDEFIX/ARIANE 42P - Pass Details

Date: 14 April 2024
Orbit: 783 x 799 km, 98.5° (Epoch: 23 May)

Event Time Altitude Azimuth Distance (km) Brightness Sun altitude
Rises 00:15:44 0° 13° (NNE) 3,289 6.8 -15.7°
Reaches altitude 10° 00:18:07 10° 8° (N) 2,357 5.8 -15.5°
Maximum altitude 00:23:05 48° 296° (WNW) 1,030 3.0 -15.0°
Enters shadow 00:26:07 22° 233° (SW) 1,652 3.6 -14.7°
